Skip Page Navigation
NASA JPL Caltech
NASA Logo - Jet Propulsion Laboratory + View the NASA Portal
+ Near-Earth Object (NEO) Program
Search JPL
JPL Home Earth Solar System Stars & Galaxies Technology
JPL Solar System Dynamics
BODIES ORBITS EPHEMERIDES TOOLS PHYSICAL DATA DISCOVERY FAQ SITE MAP
JPL Small-Body Database Browser
Search: [ help ]  
135980 Scottanderson (2002 TG369)
Classification: Main-belt Asteroid          SPK-ID: 2135980
Ephemeris | Orbit Diagram | Orbital Elements | Physical Parameters | Discovery Circumstances ]

[ show orbit diagram ]
Orbital Elements at Epoch 2456400.5 (2013-Apr-18.0) TDB
Reference: MPO248166 (heliocentric ecliptic J2000)
 Element Value Uncertainty (1-sigma)   Units 
e 0.1141942 n/a  
a 2.8050855 n/a AU
q 2.4847610 n/a AU
i 10.15010 n/a deg
node 116.67317 n/a deg
peri 151.68130 n/a deg
M 197.11928 n/a deg
tp 2457176.8986160
(2015-Jun-03.39861600)
n/a JED
period 1716.0011434
4.70
n/a
n/a
d
yr
n 0.20979007 n/a deg/d
Q 3.1254100 n/a AU
  Orbit Determination Parameters
   # obs. used (total)      154  
   first obs. used      2000-??-??  
   last obs. used      2012-12-11  
   # oppositions      10  
   planetary ephem.      DE403  
   condition code      0  
   fit RMS      0.54  
   data source      MPC:mpu  
   producer      MPCLINUX  

Additional Information
 T_jup = 3.291 

Ephemeris | Orbit Diagram | Orbital Elements | Physical Parameters | Discovery Circumstances ]

Physical Parameter Table
Parameter Symbol Value Units Sigma Reference Notes
absolute magnitude H 15.5 mag n/a MPO248166  

135980 Scottanderson           Discovered 2002 Oct. 10 by the Sloan Digital Sky Survey at Apache Point.
Scott F. Anderson (b. 1955) is an American astronomer and a contributor to the Sloan Digital Sky Survey.
NOTE: some special characters may not display properly (any characters within {} are an attempt to place the proper accent above a character)
Reference: 20120406/MPCPages.arcLast Updated: 2012-04-09

Alternate Designations
 2002 TG369 = 2005 EB219 
Ephemeris | Orbit Diagram | Orbital Elements | Physical Parameters | Discovery Circumstances ]
ABOUT SSD CREDITS/AWARDS PRIVACY/COPYRIGHT GLOSSARY LINKS
FirstGov 2013-Jun-19 02:00 UT
(server date/time)  
NASA Home Page
Site Manager:   Donald K. Yeomans
Webmaster  Alan B. Chamberlin